timestamp,wind_dir_avg,wind_spd_avg,wind_spd_max_dir,wind_spd_gust,battery_voltage,lat,long
2024-05-08 00:04:00+00:00,315.0,0.01,48.0,0.0,12.73,47.59359,-54.27349
2024-05-08 00:14:00+00:00,315.0,0.01,48.0,0.0,12.33,47.59359,-54.27349
2024-05-08 00:24:00+00:00,315.0,0.01,48.0,0.0,12.33,47.59359,-54.27349
2024-05-08 00:34:00+00:00,315.0,0.01,48.0,0.0,12.33,47.59359,-54.27349
2024-05-08 00:44:00+00:00,315.0,0.01,48.0,0.0,12.33,47.59359,-54.27349
2024-05-08 00:54:00+00:00,315.0,0.01,48.0,0.0,12.33,47.59359,-54.27349
2024-05-08 01:04:00+00:00,315.0,0.01,48.0,0.0,12.33,47.59359,-54.27349
2024-05-08 01:14:00+00:00,315.0,0.01,48.0,0.0,12.25,47.59359,-54.27349
2024-05-08 01:24:00+00:00,315.0,0.01,48.0,0.0,12.25,47.59359,-54.27349
2024-05-08 01:34:00+00:00,315.0,0.01,48.0,0.0,12.25,47.59359,-54.27349
2024-05-08 01:44:00+00:00,315.0,0.01,48.0,0.0,12.25,47.59359,-54.27349
2024-05-08 01:54:00+00:00,315.0,0.01,48.0,0.0,12.25,47.59359,-54.27349
2024-05-08 02:04:00+00:00,315.0,0.01,48.0,0.0,12.25,47.59359,-54.27349
2024-05-08 02:14:00+00:00,315.0,0.01,48.0,0.0,12.17,47.59359,-54.27349
2024-05-08 02:24:00+00:00,315.0,0.01,48.0,0.0,12.17,47.59359,-54.27349
2024-05-08 02:34:00+00:00,315.0,0.01,48.0,0.0,12.17,47.59359,-54.27349
2024-05-08 02:44:00+00:00,315.0,0.01,48.0,0.0,12.17,47.59359,-54.27349
2024-05-08 02:54:00+00:00,315.0,0.01,48.0,0.0,12.17,47.59359,-54.27349
2024-05-08 03:04:00+00:00,315.0,0.01,48.0,0.0,12.17,47.59359,-54.27349
2024-05-08 03:14:00+00:00,315.0,0.01,48.0,0.0,12.17,47.59359,-54.27349
2024-05-08 03:24:00+00:00,315.0,0.01,48.0,0.0,12.17,47.59359,-54.27349
2024-05-08 03:34:00+00:00,315.0,0.01,48.0,0.0,12.17,47.59359,-54.27349
2024-05-08 03:44:00+00:00,315.0,0.01,48.0,0.0,12.17,47.59359,-54.27349
2024-05-08 03:54:00+00:00,315.0,0.01,48.0,0.0,12.17,47.59359,-54.27349
2024-05-08 04:04:00+00:00,315.0,0.01,48.0,0.0,12.17,47.59359,-54.27349
2024-05-08 04:14:00+00:00,315.0,0.01,48.0,0.0,12.17,47.59359,-54.27349
2024-05-08 04:24:00+00:00,315.0,0.01,48.0,0.0,12.17,47.59359,-54.27349
2024-05-08 04:34:00+00:00,315.0,0.01,48.0,0.0,12.17,47.59359,-54.27349
2024-05-08 04:44:00+00:00,315.0,0.01,48.0,0.0,12.17,47.59359,-54.27349
2024-05-08 04:54:00+00:00,315.0,0.01,48.0,0.0,12.17,47.59359,-54.27349
2024-05-08 05:04:00+00:00,315.0,0.01,48.0,0.0,12.17,47.59359,-54.27349
2024-05-08 05:14:00+00:00,315.0,0.01,48.0,0.0,12.17,47.59359,-54.27349
2024-05-08 05:24:00+00:00,315.0,0.01,48.0,0.0,12.17,47.59359,-54.27349
2024-05-08 05:34:00+00:00,315.0,0.01,48.0,0.0,12.17,47.59359,-54.27349
2024-05-08 05:44:00+00:00,315.0,0.01,48.0,0.0,12.17,47.59359,-54.27349
2024-05-08 05:54:00+00:00,315.0,0.01,48.0,0.0,12.17,47.59359,-54.27349
2024-05-08 06:04:00+00:00,315.0,0.01,48.0,0.0,12.17,47.59359,-54.27349
2024-05-08 06:14:01+00:00,315.0,0.01,48.0,0.0,12.09,47.59359,-54.27349
2024-05-08 06:24:01+00:00,315.0,0.01,48.0,0.0,12.09,47.59359,-54.27349
2024-05-08 06:34:01+00:00,315.0,0.01,48.0,0.0,12.09,47.59359,-54.27349
2024-05-08 06:44:01+00:00,315.0,0.01,48.0,0.0,12.09,47.59359,-54.27349
2024-05-08 06:54:01+00:00,315.0,0.01,48.0,0.0,12.09,47.59359,-54.27349
2024-05-08 07:04:01+00:00,315.0,0.01,48.0,0.0,12.09,47.59359,-54.27349
2024-05-08 07:14:00+00:00,315.0,0.01,48.0,0.0,12.09,47.59359,-54.27349
2024-05-08 07:24:00+00:00,315.0,0.01,48.0,0.0,12.09,47.59359,-54.27349
2024-05-08 07:34:00+00:00,315.0,0.01,48.0,0.0,12.09,47.59359,-54.27349
2024-05-08 07:44:00+00:00,315.0,0.01,48.0,0.0,12.09,47.59359,-54.27349
2024-05-08 07:54:00+00:00,315.0,0.01,48.0,0.0,12.09,47.59359,-54.27349
2024-05-08 08:04:00+00:00,315.0,0.01,48.0,0.0,12.09,47.59359,-54.27349
2024-05-08 08:14:00+00:00,315.0,0.01,48.0,0.0,12.09,47.59359,-54.27349
2024-05-08 08:24:00+00:00,315.0,0.01,48.0,0.0,12.09,47.59359,-54.27349
2024-05-08 08:34:00+00:00,315.0,0.01,48.0,0.0,12.09,47.59359,-54.27349
2024-05-08 08:44:00+00:00,315.0,0.01,48.0,0.0,12.09,47.59359,-54.27349
2024-05-08 08:54:00+00:00,315.0,0.01,48.0,0.0,12.09,47.59359,-54.27349
2024-05-08 09:04:00+00:00,315.0,0.01,48.0,0.0,12.09,47.59359,-54.27349
2024-05-08 09:14:00+00:00,315.0,0.01,48.0,0.0,12.09,47.59359,-54.27349
2024-05-08 09:24:00+00:00,315.0,0.01,48.0,0.0,12.09,47.59359,-54.27349
2024-05-08 09:34:00+00:00,315.0,0.01,48.0,0.0,12.09,47.59359,-54.27349
2024-05-08 09:44:00+00:00,315.0,0.01,48.0,0.0,12.09,47.59359,-54.27349
2024-05-08 09:54:00+00:00,315.0,0.01,48.0,0.0,12.09,47.59359,-54.27349
2024-05-08 10:04:00+00:00,315.0,0.01,48.0,0.0,12.09,47.59359,-54.27349
2024-05-08 10:14:00+00:00,315.0,0.01,48.0,0.0,12.41,47.59359,-54.27349
2024-05-08 10:24:00+00:00,315.0,0.01,48.0,0.0,12.41,47.59359,-54.27349
2024-05-08 10:34:00+00:00,315.0,0.01,48.0,0.0,12.41,47.59359,-54.27349
2024-05-08 10:44:00+00:00,315.0,0.01,48.0,0.0,12.41,47.59359,-54.27349
2024-05-08 10:54:00+00:00,315.0,0.01,48.0,0.0,12.41,47.59359,-54.27349
2024-05-08 11:04:00+00:00,315.0,0.01,48.0,0.0,12.41,47.59359,-54.27349
2024-05-08 11:14:00+00:00,315.0,0.01,48.0,0.0,13.44,47.59359,-54.27349
2024-05-08 11:24:00+00:00,315.0,0.01,48.0,0.0,13.44,47.59359,-54.27349
2024-05-08 11:34:00+00:00,315.0,0.01,48.0,0.0,13.44,47.59359,-54.27349
2024-05-08 11:44:00+00:00,315.0,0.01,48.0,0.0,13.44,47.59359,-54.27349
2024-05-08 11:54:00+00:00,315.0,0.01,48.0,0.0,13.44,47.59359,-54.27349
2024-05-08 12:04:00+00:00,315.0,0.01,48.0,0.0,13.44,47.59359,-54.27349
2024-05-08 12:14:00+00:00,315.0,0.01,48.0,0.0,13.53,47.59359,-54.27349
2024-05-08 12:24:00+00:00,315.0,0.01,48.0,0.0,13.53,47.59359,-54.27349
2024-05-08 12:34:00+00:00,315.0,0.01,48.0,0.0,13.53,47.59359,-54.27349
2024-05-08 12:44:00+00:00,315.0,0.01,48.0,0.0,13.53,47.59359,-54.27349
2024-05-08 12:54:00+00:00,315.0,0.01,48.0,0.0,13.53,47.59359,-54.27349
2024-05-08 13:04:00+00:00,315.0,0.01,48.0,0.0,13.53,47.59359,-54.27349
2024-05-08 13:14:00+00:00,315.0,0.01,48.0,0.0,13.53,47.59359,-54.27349
2024-05-08 13:24:00+00:00,315.0,0.01,48.0,0.0,13.53,47.59359,-54.27349
2024-05-08 13:34:00+00:00,315.0,0.01,48.0,0.0,13.53,47.59359,-54.27349
2024-05-08 13:44:00+00:00,315.0,0.01,48.0,0.0,13.53,47.59359,-54.27349
2024-05-08 13:54:00+00:00,315.0,0.01,48.0,0.0,13.53,47.59359,-54.27349
2024-05-08 14:04:00+00:00,315.0,0.01,48.0,0.0,13.53,47.59359,-54.27349
2024-05-08 14:14:00+00:00,315.0,0.01,48.0,0.0,13.6,47.59359,-54.27349
2024-05-08 14:24:00+00:00,315.0,0.01,48.0,0.0,13.6,47.59359,-54.27349
2024-05-08 14:34:00+00:00,315.0,0.01,48.0,0.0,13.6,47.59359,-54.27349
2024-05-08 14:44:00+00:00,315.0,0.01,48.0,0.0,13.6,47.59359,-54.27349
2024-05-08 14:54:00+00:00,315.0,0.01,48.0,0.0,13.6,47.59359,-54.27349
2024-05-08 15:04:00+00:00,315.0,0.01,48.0,0.0,13.6,47.59359,-54.27349
2024-05-08 15:14:00+00:00,315.0,0.01,48.0,0.0,13.53,47.59359,-54.27349
2024-05-08 15:24:00+00:00,315.0,0.01,48.0,0.0,13.53,47.59359,-54.27349
2024-05-08 15:34:00+00:00,315.0,0.01,48.0,0.0,13.53,47.59359,-54.27349
2024-05-08 15:44:00+00:00,315.0,0.01,48.0,0.0,13.53,47.59359,-54.27349
2024-05-08 15:54:00+00:00,315.0,0.01,48.0,0.0,13.53,47.59359,-54.27349
2024-05-08 16:04:00+00:00,315.0,0.01,48.0,0.0,13.53,47.59359,-54.27349
2024-05-08 16:14:00+00:00,315.0,0.01,48.0,0.0,13.53,47.59359,-54.27349
2024-05-08 16:24:00+00:00,315.0,0.01,48.0,0.0,13.53,47.59359,-54.27349
2024-05-08 16:34:00+00:00,315.0,0.01,48.0,0.0,13.53,47.59359,-54.27349
2024-05-08 16:44:00+00:00,315.0,0.01,48.0,0.0,13.53,47.59359,-54.27349
2024-05-08 16:54:00+00:00,315.0,0.01,48.0,0.0,13.53,47.59359,-54.27349
2024-05-08 17:04:00+00:00,315.0,0.01,48.0,0.0,13.53,47.59359,-54.27349
2024-05-08 17:14:00+00:00,315.0,0.01,48.0,0.0,13.6,47.59359,-54.27349
2024-05-08 17:24:00+00:00,315.0,0.01,48.0,0.0,13.6,47.59359,-54.27349
2024-05-08 17:34:00+00:00,315.0,0.01,48.0,0.0,13.6,47.59359,-54.27349
2024-05-08 17:44:00+00:00,315.0,0.01,48.0,0.0,13.6,47.59359,-54.27349
2024-05-08 17:54:00+00:00,315.0,0.01,48.0,0.0,13.6,47.59359,-54.27349
2024-05-08 18:04:00+00:00,315.0,0.01,48.0,0.0,13.6,47.59359,-54.27349
2024-05-08 18:14:00+00:00,315.0,0.01,48.0,0.0,13.53,47.59359,-54.27349
2024-05-08 18:24:00+00:00,315.0,0.01,48.0,0.0,13.53,47.59359,-54.27349
2024-05-08 18:34:00+00:00,315.0,0.01,48.0,0.0,13.53,47.59359,-54.27349
2024-05-08 18:44:00+00:00,315.0,0.01,48.0,0.0,13.53,47.59359,-54.27349
2024-05-08 18:54:00+00:00,315.0,0.01,48.0,0.0,13.53,47.59359,-54.27349
2024-05-08 19:04:00+00:00,315.0,0.01,48.0,0.0,13.53,47.59359,-54.27349
2024-05-08 19:14:00+00:00,315.0,0.01,48.0,0.0,13.44,47.59359,-54.27349
2024-05-08 19:24:00+00:00,315.0,0.01,48.0,0.0,13.44,47.59359,-54.27349
2024-05-08 19:34:00+00:00,315.0,0.01,48.0,0.0,13.44,47.59359,-54.27349
2024-05-08 19:44:00+00:00,315.0,0.01,48.0,0.0,13.44,47.59359,-54.27349
2024-05-08 19:54:00+00:00,315.0,0.01,48.0,0.0,13.44,47.59359,-54.27349
2024-05-08 20:04:00+00:00,315.0,0.01,48.0,0.0,13.44,47.59359,-54.27349
2024-05-08 20:14:00+00:00,315.0,0.01,48.0,0.0,13.6,47.59359,-54.27349
2024-05-08 20:24:00+00:00,315.0,0.01,48.0,0.0,13.6,47.59359,-54.27349
2024-05-08 20:34:00+00:00,315.0,0.01,48.0,0.0,13.6,47.59359,-54.27349
2024-05-08 20:44:00+00:00,315.0,0.01,48.0,0.0,13.6,47.59359,-54.27349
2024-05-08 20:54:00+00:00,315.0,0.01,48.0,0.0,13.6,47.59359,-54.27349
2024-05-08 21:04:00+00:00,315.0,0.01,48.0,0.0,13.6,47.59359,-54.27349
2024-05-08 21:14:00+00:00,315.0,0.01,48.0,0.0,13.44,47.59359,-54.27349
2024-05-08 21:24:00+00:00,315.0,0.01,48.0,0.0,13.44,47.59359,-54.27349
2024-05-08 21:34:00+00:00,315.0,0.01,48.0,0.0,13.44,47.59359,-54.27349
2024-05-08 21:44:00+00:00,315.0,0.01,48.0,0.0,13.44,47.59359,-54.27349
2024-05-08 21:54:00+00:00,315.0,0.01,48.0,0.0,13.44,47.59359,-54.27349
2024-05-08 22:04:00+00:00,315.0,0.01,48.0,0.0,13.44,47.59359,-54.27349
2024-05-08 22:14:00+00:00,315.0,0.01,48.0,0.0,13.13,47.59359,-54.27349
2024-05-08 22:24:00+00:00,315.0,0.01,48.0,0.0,13.13,47.59359,-54.27349
2024-05-08 22:34:00+00:00,315.0,0.01,48.0,0.0,13.13,47.59359,-54.27349
2024-05-08 22:44:00+00:00,315.0,0.01,48.0,0.0,13.13,47.59359,-54.27349
2024-05-08 22:54:00+00:00,315.0,0.01,48.0,0.0,13.13,47.59359,-54.27349
2024-05-08 23:04:00+00:00,315.0,0.01,48.0,0.0,13.13,47.59359,-54.27349
2024-05-08 23:14:00+00:00,315.0,0.01,48.0,0.0,12.57,47.59359,-54.27349
2024-05-08 23:24:00+00:00,315.0,0.01,48.0,0.0,12.57,47.59359,-54.27349
2024-05-08 23:34:00+00:00,315.0,0.01,48.0,0.0,12.57,47.59359,-54.27349
2024-05-08 23:44:00+00:00,315.0,0.01,48.0,0.0,12.57,47.59359,-54.27349
2024-05-08 23:54:00+00:00,315.0,0.01,48.0,0.0,12.57,47.59359,-54.27349
